Content
SEND FEEDBACK

Daily
Averages
Monthly
Summary
Brazil

ILHEUS, BAHIA


Home > South America > Brazil > Bahia
Elevation: 16 feet     Latitude: 14 50S     Longitude: 039 02W

WEATHER
 
SELECT A DAY
Number of Records: 96,899;   Date Range: 7/16/96 - 10/23/14
 
SHARE

PRINT THIS DATA

[ ← Previous Day ]
WEATHER ALMANAC - FEBRUARY 13, 2013
[ Next Day → ]
[ °C ]   °F
Weather ElementAverageHighLow
Temperature81 °F86 °F (3:00 pm)73.4 °F (5:00 am)
Dewpoint71 °F73.4 °F (9:00 am)68 °F (8:00 pm)
Humidity71.3 %94 % (5:00 am)55 % (4:00 pm)
Barometer29.93 in29.98 in (11:00 am)29.89 in (3:00 am)
Wind Speed6.9 mph9.2 mph (1:00 am)
Weather ElementAverage
Visibility7.1 mi
Wind DirectionSE (139.6 °)

Weather ElementTotal
Precipitation---
Cooling Degree Days14.7 (Base 65)
Growing Degree Days29.7 (Base 50)
Averaged from 27 records on February 13, 2013
WEATHER CONDITIONS BREAKOUT
WIND DIRECTION BREAKOUT
WEATHER BY HOUR - FEBRUARY 13, 2013
[ °C ]   °F
Local TimeTemperatureDewpointHumidityBarometerVisibilityWind DirectionWind SpeedGust SpeedPrecipitationEventsConditions
1:00 AM80.6 °F69.8 °F70 %29.92 in6.2 miEast (80°)9.2 mphScattered Clouds
2:00 AM80.6 °F69.8 °F70 %29.92 in6.2 miEast (80°)8.1 mphScattered Clouds
3:00 AM80.6 °F69.8 °F70 %29.89 in6.2 miEast (80°)5.8 mphPartly Cloudy
4:00 AM78.0 °F71.0 °F75 %29.92 in12.0 miWSW (250°)4.6 mphScattered Clouds
4:00 AM78.8 °F71.6 °F78 %29.92 in6.2 miWSW (250°)4.6 mphPartly Cloudy
5:00 AM73.4 °F71.6 °F94 %29.89 in6.2 miWest (260°)6.9 mphScattered Clouds
6:00 AM73.4 °F71.6 °F94 %29.89 in6.2 miWest (260°)5.8 mphScattered Clouds
7:00 AM73.4 °F71.6 °F94 %29.92 in6.2 miWest (270°)4.6 mphScattered Clouds
8:00 AM75.2 °F71.6 °F89 %29.95 in6.2 miWest (280°)5.8 mphScattered Clouds
9:00 AM80.6 °F73.4 °F79 %29.95 in6.2 miWest (280°)4.6 mphPartly Cloudy
10:00 AM84.0 °F71.0 °F57 %29.97 in12.0 miESE (110°)5.8 mphPartly Cloudy
10:00 AM84.2 °F71.6 °F66 %29.95 in6.2 miESE (110°)5.8 mphScattered Clouds
11:00 AM84.2 °F73.4 °F70 %29.98 in6.2 miESE (110°)6.9 mphScattered Clouds
12:00 PM84.2 °F71.6 °F66 %29.98 in6.2 miNNE (30°)8.1 mphScattered Clouds
1:00 PM84.2 °F73.4 °F70 %29.95 in6.2 miEast (90°)6.9 mphScattered Clouds
2:00 PM84.2 °F71.6 °F66 %29.95 in6.2 miEast (100°)9.2 mphScattered Clouds
3:00 PM86.0 °F71.6 °F62 %29.92 in6.2 miEast (80°)8.1 mphPartly Cloudy
4:00 PM85.0 °F71.0 °F55 %29.91 in12.0 miESE (110°)6.9 mphScattered Clouds
4:00 PM84.2 °F71.6 °F66 %29.89 in6.2 miESE (110°)6.9 mphPartly Cloudy
5:00 PM84.2 °F71.6 °F66 %29.89 in6.2 miEast (90°)9.2 mphPartly Cloudy
6:00 PM82.4 °F69.8 °F66 %29.89 in6.2 miEast (100°)9.2 mphScattered Clouds
7:00 PM82.4 °F69.8 °F66 %29.89 in6.2 miESE (110°)9.2 mphPartly Cloudy
8:00 PM80.6 °F68.0 °F65 %29.92 in6.2 miESE (110°)8.1 mphScattered Clouds
9:00 PM80.6 °F69.8 °F70 %29.92 in6.2 miESE (110°)6.9 mphScattered Clouds
10:00 PM81.0 °F70.0 °F62 %29.95 in12.0 miEast (100°)6.9 mphScattered Clouds
10:00 PM80.6 °F69.8 °F70 %29.95 in6.2 miEast (100°)6.9 mphPartly Cloudy
11:00 PM80.6 °F69.8 °F70 %29.95 in6.2 miESE (110°)5.8 mphPartly Cloudy
Hourly data recorded from SBIL, located miles away from Ilheus, Bahia







STORIES FROM OUR PARTNERS